| time (UTC) | temp F | wind direction | speed MPH | gust MPH | rain 1hr in | rain 24hr in | rain mn in | humidity % | barometer mb |
| 20260906201036 | 72 | 338 | 3.0 | 8.0 | 0.00 | 0.26 | 0.26 | 59 | 1013.5 |
| 20260906200016 | 72 | 0 | 4.0 | 8.0 | 0.00 | 0.26 | 0.26 | 58 | 1013.5 |
| 20260906195016 | 72 | 338 | 3.0 | 8.0 | 0.00 | 0.26 | 0.26 | 59 | 1013.5 |
| 20260906194016 | 71 | 270 | 2.0 | 6.0 | 0.00 | 0.26 | 0.26 | 62 | 1013.5 |
| 20260906193036 | 71 | 338 | 2.0 | 7.0 | 0.00 | 0.26 | 0.26 | 64 | 1013.6 |
| 20260906192016 | 71 | 338 | 3.0 | 8.0 | 0.00 | 0.26 | 0.26 | 62 | 1013.6 |
| 20260906191016 | 71 | 315 | 3.0 | 6.0 | 0.00 | 0.26 | 0.26 | 62 | 1013.7 |
| 20260906190016 | 71 | 0 | 2.0 | 4.0 | 0.00 | 0.26 | 0.26 | 66 | 1013.7 |
| 20260906185016 | 70 | 0 | 2.0 | 5.0 | 0.00 | 0.26 | 0.26 | 67 | 1013.8 |
| 20260906184016 | 71 | 0 | 1.0 | 5.0 | 0.00 | 0.26 | 0.26 | 66 | 1013.9 |
| 20260906183016 | 71 | 113 | 2.0 | 4.0 | 0.00 | 0.26 | 0.26 | 68 | 1014.0 |
| 20260906182036 | 70 | 225 | 2.0 | 4.0 | 0.00 | 0.26 | 0.26 | 71 | 1014.1 |
| 20260906181036 | 70 | 315 | 1.0 | 4.0 | 0.00 | 0.26 | 0.26 | 73 | 1014.3 |
| 20260906180016 | 69 | 0.0 | 2.0 | 0.00 | 0.26 | 0.26 | 74 | 1014.4 | |
| 20260906175016 | 69 | 315 | 1.0 | 4.0 | 0.00 | 0.26 | 0.26 | 75 | 1014.4 |
| 20260906174016 | 68 | 0.0 | 2.0 | 0.05 | 0.26 | 0.26 | 82 | 1014.5 | |
| 20260906173016 | 67 | 0.0 | 3.0 | 0.06 | 0.26 | 0.26 | 86 | 1014.6 | |
| 20260906172056 | 65 | 0.0 | 2.0 | 0.06 | 0.26 | 0.26 | 89 | 1014.8 | |
| 20260906171016 | 63 | 0.0 | 3.0 | 0.06 | 0.26 | 0.26 | 89 | 1014.9 | |
| 20260906170016 | 62 | 0.0 | 2.0 | 0.06 | 0.26 | 0.26 | 88 | 1015.0 | |
| 20260906165016 | 63 | 0.0 | 2.0 | 0.06 | 0.26 | 0.26 | 86 | 1015.2 | |
| 20260906164036 | 63 | 0 | 2.0 | 6.0 | 0.01 | 0.21 | 0.21 | 82 | 1015.3 |
| 20260906163016 | 63 | 0 | 3.0 | 6.0 | 0.00 | 0.20 | 0.20 | 79 | 1015.2 |
| 20260906162016 | 64 | 23 | 3.0 | 9.0 | 0.00 | 0.20 | 0.20 | 79 | 1015.1 |
| 20260906161036 | 65 | 0 | 3.0 | 9.0 | 0.00 | 0.20 | 0.20 | 80 | 1015.2 |
| 20260906160016 | 65 | 0 | 2.0 | 6.0 | 0.00 | 0.20 | 0.20 | 80 | 1015.2 |
| 20260906155016 | 64 | 0 | 3.0 | 7.0 | 0.00 | 0.20 | 0.20 | 82 | 1015.3 |
| 20260906154016 | 64 | 0 | 2.0 | 5.0 | 0.00 | 0.20 | 0.20 | 82 | 1015.3 |
| 20260906153016 | 64 | 0 | 2.0 | 6.0 | 0.00 | 0.20 | 0.20 | 83 | 1015.4 |
| 20260906152016 | 64 | 23 | 2.0 | 5.0 | 0.00 | 0.20 | 0.20 | 82 | 1015.4 |
| 20260906151015 | 65 | 0 | 2.0 | 6.0 | 0.00 | 0.20 | 0.20 | 79 | 1015.5 |
| 20260906150016 | 64 | 23 | 3.0 | 8.0 | 0.00 | 0.20 | 0.20 | 80 | 1015.6 |
| 20260906145015 | 63 | 0 | 3.0 | 7.0 | 0.00 | 0.20 | 0.20 | 82 | 1015.6 |
| 20260906144015 | 62 | 0 | 2.0 | 5.0 | 0.00 | 0.20 | 0.20 | 84 | 1015.7 |
| 20260906143015 | 62 | 0 | 2.0 | 7.0 | 0.00 | 0.20 | 0.20 | 84 | 1015.7 |
| 20260906142015 | 62 | 23 | 2.0 | 7.0 | 0.00 | 0.20 | 0.20 | 85 | 1015.6 |
| 20260906141055 | 61 | 0 | 3.0 | 6.0 | 0.00 | 0.20 | 0.20 | 85 | 1015.5 |
| 20260906140015 | 62 | 0 | 3.0 | 7.0 | 0.00 | 0.20 | 0.20 | 85 | 1015.5 |
| 20260906135015 | 62 | 0 | 2.0 | 5.0 | 0.00 | 0.20 | 0.20 | 85 | 1015.5 |
| 20260906134015 | 61 | 23 | 2.0 | 5.0 | 0.00 | 0.20 | 0.20 | 86 | 1015.5 |
| 20260906133015 | 61 | 0 | 3.0 | 6.0 | 0.00 | 0.20 | 0.20 | 87 | 1015.5 |
| 20260906132015 | 61 | 23 | 2.0 | 6.0 | 0.00 | 0.20 | 0.20 | 88 | 1015.5 |
| 20260906131015 | 60 | 23 | 4.0 | 7.0 | 0.00 | 0.20 | 0.20 | 89 | 1015.5 |
| 20260906130015 | 60 | 23 | 2.0 | 5.0 | 0.00 | 0.20 | 0.20 | 90 | 1015.5 |
| 20260906125015 | 60 | 338 | 2.0 | 6.0 | 0.00 | 0.20 | 0.20 | 92 | 1015.6 |
| 20260906124015 | 60 | 0 | 2.0 | 6.0 | 0.00 | 0.20 | 0.20 | 93 | 1015.6 |
| 20260906123035 | 59 | 315 | 2.0 | 6.0 | 0.00 | 0.20 | 0.20 | 94 | 1015.6 |
| 20260906122015 | 59 | 0 | 3.0 | 8.0 | 0.00 | 0.20 | 0.20 | 94 | 1015.4 |
| 20260906121015 | 59 | 0 | 2.0 | 5.0 | 0.00 | 0.20 | 0.20 | 95 | 1015.2 |
| 20260906120015 | 59 | 0 | 1.0 | 3.0 | 0.00 | 0.20 | 0.20 | 95 | 1015.2 |
| 20260906115017 | 59 | 0 | 1.0 | 3.0 | 0.01 | 0.20 | 0.20 | 95 | 1015.1 |
| 20260906114017 | 59 | 0 | 2.0 | 5.0 | 0.01 | 0.20 | 0.20 | 95 | 1014.9 |
| 20260906113037 | 59 | 338 | 1.0 | 4.0 | 0.01 | 0.20 | 0.20 | 95 | 1014.8 |
| 20260906112017 | 59 | 0.0 | 3.0 | 0.02 | 0.20 | 0.20 | 95 | 1014.8 | |
| 20260906111017 | 58 | 0.0 | 2.0 | 0.02 | 0.20 | 0.20 | 95 | 1014.6 | |
| 20260906110017 | 58 | 0.0 | 1.0 | 0.02 | 0.20 | 0.20 | 94 | 1014.5 | |
| 20260906105017 | 58 | 0.0 | 2.0 | 0.01 | 0.19 | 0.19 | 94 | 1014.4 | |
| 20260906104037 | 58 | 0.0 | 2.0 | 0.01 | 0.19 | 0.19 | 94 | 1014.3 | |
| 20260906103017 | 58 | 0.0 | 2.0 | 0.01 | 0.19 | 0.19 | 94 | 1014.2 | |
| 20260906102017 | 58 | 0.0 | 2.0 | 0.00 | 0.18 | 0.18 | 94 | 1014.1 | |
| 20260906101017 | 58 | 23 | 1.0 | 4.0 | 0.00 | 0.18 | 0.18 | 94 | 1014.0 |
| 20260906100017 | 59 | 0 | 2.0 | 5.0 | 0.01 | 0.18 | 0.18 | 94 | 1014.0 |
| 20260906095017 | 59 | 0 | 1.0 | 5.0 | 0.01 | 0.18 | 0.18 | 94 | 1013.9 |
| 20260906094017 | 59 | 0.0 | 0.0 | 0.03 | 0.18 | 0.18 | 94 | 1013.8 | |
| 20260906093037 | 59 | 0.0 | 0.0 | 0.05 | 0.18 | 0.18 | 94 | 1013.7 | |
| 20260906092017 | 59 | 0.0 | 0.0 | 0.07 | 0.18 | 0.18 | 94 | 1013.8 | |
| 20260906091017 | 59 | 0.0 | 0.0 | 0.07 | 0.18 | 0.18 | 94 | 1013.7 | |
| 20260906090017 | 59 | 0.0 | 2.0 | 0.06 | 0.17 | 0.17 | 94 | 1013.5 | |
| 20260906085017 | 59 | 0.0 | 3.0 | 0.06 | 0.17 | 0.17 | 94 | 1013.6 | |
| 20260906084017 | 59 | 113 | 1.0 | 3.0 | 0.05 | 0.15 | 0.15 | 94 | 1013.5 |
| 20260906083017 | 60 | 90 | 1.0 | 5.0 | 0.03 | 0.13 | 0.13 | 94 | 1013.6 |
| 20260906082037 | 60 | 45 | 1.0 | 5.0 | 0.01 | 0.11 | 0.11 | 94 | 1013.6 |
| 20260906081017 | 60 | 45 | 1.0 | 3.0 | 0.02 | 0.11 | 0.11 | 95 | 1013.4 |
| 20260906080017 | 61 | 0.0 | 2.0 | 0.03 | 0.11 | 0.11 | 94 | 1013.2 | |
| 20260906075017 | 61 | 23 | 1.0 | 5.0 | 0.04 | 0.11 | 0.11 | 95 | 1013.0 |
| 20260906074037 | 61 | 23 | 2.0 | 6.0 | 0.03 | 0.10 | 0.10 | 95 | 1012.9 |
| 20260906073017 | 61 | 0 | 2.0 | 4.0 | 0.04 | 0.10 | 0.10 | 95 | 1012.8 |
| 20260906072017 | 61 | 0 | 1.0 | 3.0 | 0.08 | 0.10 | 0.10 | 94 | 1012.9 |
| 20260906071017 | 61 | 0.0 | 3.0 | 0.09 | 0.09 | 0.09 | 94 | 1012.8 | |
| 20260906070037 | 61 | 0 | 1.0 | 3.0 | 0.08 | 0.08 | 0.08 | 94 | 1012.8 |
| 20260906065017 | 61 | 0 | 1.0 | 3.0 | 0.07 | 0.07 | 0.07 | 94 | 1013.0 |
| 20260906064017 | 61 | 0 | 1.0 | 3.0 | 0.07 | 0.07 | 0.07 | 94 | 1012.8 |
| 20260906063017 | 61 | 0 | 1.0 | 5.0 | 0.06 | 0.06 | 0.06 | 94 | 1012.9 |
| 20260906062017 | 61 | 0 | 1.0 | 3.0 | 0.02 | 0.02 | 0.02 | 94 | 1012.9 |
| 20260906061017 | 61 | 338 | 1.0 | 4.0 | 0.00 | 0.00 | 0.00 | 94 | 1012.9 |
| 20260906060016 | 61 | 338 | 1.0 | 3.0 | 0.00 | 0.00 | 0.00 | 94 | 1012.9 |
| 20260906055037 | 61 | 338 | 1.0 | 3.0 | 0.00 | 0.00 | 0.00 | 94 | 1013.0 |
| 20260906054016 | 62 | 338 | 1.0 | 4.0 | 0.00 | 0.00 | 0.00 | 94 | 1012.9 |
| 20260906053017 | 62 | 0.0 | 2.0 | 0.00 | 0.00 | 0.00 | 93 | 1012.8 | |
| 20260906052017 | 62 | 0.0 | 2.0 | 0.00 | 0.00 | 0.00 | 93 | 1013.0 | |
| 20260906051016 | 62 | 0.0 | 2.0 | 0.00 | 0.00 | 0.00 | 93 | 1013.0 | |
| 20260906050016 | 62 | 315 | 1.0 | 3.0 | 0.00 | 0.00 | 0.00 | 93 | 1013.1 |
| 20260906045036 | 62 | 0.0 | 2.0 | 0.00 | 0.00 | 0.00 | 93 | 1013.1 | |
| 20260906044016 | 62 | 0.0 | 2.0 | 0.00 | 0.00 | 0.00 | 93 | 1013.1 | |
| 20260906043016 | 62 | 0.0 | 2.0 | 0.00 | 0.00 | 0.00 | 93 | 1013.0 | |
| 20260906042057 | 63 | 0.0 | 1.0 | 0.00 | 0.00 | 0.00 | 93 | 1013.0 | |
| 20260906041016 | 63 | 0.0 | 1.0 | 0.00 | 0.00 | 0.00 | 93 | 1013.0 | |
| 20260906040016 | 63 | 0.0 | 1.0 | 0.00 | 0.00 | 0.00 | 93 | 1012.9 | |
| 20260906035017 | 63 | 0.0 | 1.0 | 0.00 | 0.00 | 0.00 | 92 | 1012.9 | |
| 20260906034017 | 63 | 0.0 | 1.0 | 0.00 | 0.00 | 0.00 | 92 | 1012.9 | |
| 20260906033017 | 63 | 0.0 | 2.0 | 0.00 | 0.00 | 0.00 | 92 | 1012.8 | |
| 20260906032017 | 63 | 0.0 | 2.0 | 0.00 | 0.00 | 0.00 | 92 | 1012.7 | |
| 20260906031017 | 63 | 0.0 | 1.0 | 0.00 | 0.00 | 0.00 | 92 | 1012.7 | |
| 20260906030037 | 63 | 0.0 | 2.0 | 0.00 | 0.00 | 0.00 | 91 | 1012.8 | |
| 20260906025037 | 63 | 0.0 | 1.0 | 0.00 | 0.00 | 0.00 | 91 | 1012.7 | |
| 20260906024017 | 63 | 0.0 | 1.0 | 0.00 | 0.00 | 0.00 | 90 | 1012.8 | |
| 20260906023017 | 64 | 0.0 | 0.0 | 0.00 | 0.00 | 0.00 | 90 | 1012.7 | |
| 20260906022017 | 64 | 0.0 | 0.0 | 0.00 | 0.00 | 0.00 | 89 | 1012.6 | |
| 20260906021057 | 64 | 0.0 | 0.0 | 0.00 | 0.00 | 0.00 | 88 | 1012.5 | |
| 20260906020017 | 64 | 0.0 | 0.0 | 0.00 | 0.00 | 0.00 | 88 | 1012.7 | |
| 20260906015017 | 64 | 0.0 | 0.0 | 0.00 | 0.00 | 0.00 | 88 | 1012.8 | |
| 20260906014017 | 64 | 0.0 | 2.0 | 0.00 | 0.00 | 0.00 | 87 | 1012.8 | |
| 20260906013016 | 64 | 0 | 1.0 | 3.0 | 0.00 | 0.00 | 0.00 | 87 | 1012.9 |
| 20260906012017 | 65 | 0 | 1.0 | 3.0 | 0.00 | 0.00 | 0.00 | 86 | 1012.8 |
| 20260906011017 | 65 | 23 | 1.0 | 4.0 | 0.00 | 0.00 | 0.00 | 85 | 1012.8 |
| 20260906010037 | 65 | 0.0 | 0.0 | 0.00 | 0.00 | 0.00 | 84 | 1012.7 | |
| 20260906005016 | 65 | 0.0 | 0.0 | 0.00 | 0.00 | 0.00 | 83 | 1012.5 | |
| 20260906004017 | 65 | 0.0 | 0.0 | 0.00 | 0.00 | 0.00 | 82 | 1012.4 | |
| 20260906003017 | 65 | 0.0 | 1.0 | 0.00 | 0.00 | 0.00 | 80 | 1012.3 | |
| 20260906002017 | 65 | 0.0 | 0.0 | 0.00 | 0.00 | 0.00 | 80 | 1012.3 | |
| 20260906001017 | 65 | 0.0 | 1.0 | 0.00 | 0.00 | 0.00 | 80 | 1012.3 | |
| 20260906000017 | 65 | 0.0 | 2.0 | 0.00 | 0.00 | 0.00 | 79 | 1012.2 | |
| 20260905235017 | 66 | 0.0 | 2.0 | 0.00 | 0.00 | 0.00 | 79 | 1012.2 | |
| 20260905234037 | 66 | 0.0 | 3.0 | 0.00 | 0.00 | 0.00 | 79 | 1012.0 | |
| 20260905233017 | 66 | 0.0 | 1.0 | 0.00 | 0.00 | 0.00 | 78 | 1012.1 | |
| 20260905232017 | 66 | 0.0 | 1.0 | 0.00 | 0.00 | 0.00 | 78 | 1011.8 | |
| 20260905231016 | 66 | 0.0 | 0.0 | 0.00 | 0.00 | 0.00 | 78 | 1011.7 | |
| 20260905230016 | 66 | 0.0 | 3.0 | 0.00 | 0.00 | 0.00 | 77 | 1011.7 | |
| 20260905225037 | 66 | 0.0 | 1.0 | 0.00 | 0.00 | 0.00 | 77 | 1011.6 | |
| 20260905224016 | 66 | 0.0 | 3.0 | 0.00 | 0.00 | 0.00 | 76 | 1011.5 | |
| 20260905223016 | 66 | 158 | 1.0 | 4.0 | 0.00 | 0.00 | 0.00 | 76 | 1011.4 |
| 20260905222016 | 66 | 158 | 1.0 | 4.0 | 0.00 | 0.00 | 0.00 | 76 | 1011.5 |
| 20260905221037 | 66 | 135 | 1.0 | 5.0 | 0.00 | 0.00 | 0.00 | 76 | 1011.4 |
| 20260905220016 | 66 | 158 | 1.0 | 4.0 | 0.00 | 0.00 | 0.00 | 77 | 1011.4 |
| 20260905215016 | 66 | 113 | 3.0 | 8.0 | 0.00 | 0.00 | 0.00 | 76 | 1011.1 |
| 20260905214016 | 66 | 135 | 2.0 | 7.0 | 0.00 | 0.00 | 0.00 | 77 | 1010.9 |
| 20260905213037 | 66 | 113 | 2.0 | 7.0 | 0.00 | 0.00 | 0.00 | 77 | 1011.0 |
| 20260905212017 | 67 | 135 | 2.0 | 4.0 | 0.00 | 0.00 | 0.00 | 77 | 1010.9 |
| 20260905211016 | 67 | 203 | 2.0 | 10.0 | 0.00 | 0.00 | 0.00 | 76 | 1010.8 |
| 20260905210016 | 68 | 135 | 3.0 | 7.0 | 0.00 | 0.00 | 0.00 | 76 | 1010.9 |
| 20260905205016 | 69 | 90 | 3.0 | 7.0 | 0.00 | 0.00 | 0.00 | 73 | 1010.7 |
| 20260905204016 | 70 | 158 | 2.0 | 8.0 | 0.00 | 0.00 | 0.00 | 71 | 1010.6 |
| 20260905203016 | 71 | 113 | 3.0 | 8.0 | 0.00 | 0.00 | 0.00 | 69 | 1010.4 |
| 20260905202016 | 72 | 113 | 4.0 | 8.0 | 0.00 | 0.00 | 0.00 | 69 | 1010.2 |